Flag for Belarus Weather past 2 weeks in Minsk, Belarus

Now
39 °F

Fog.


Feels Like: 32 °F
Forecast: 31 / 41 °F
Wind: 10 mph from Southeast

Location: Minsk

Current Time: Mar 2, 2015 at 3:26:25 AM

Latest Report: Mar 2, 2015 at 3:00 AM


Visibility: 3 mi

Pressure: 29.77 "Hg

Humidity: 93%

Dew point: 37 °F

Location of MinskLocation

Historic Weather in Minsk — Graph

°F

Minsk temperature yesterday

Maximum temperature yesterday: 39 °F (at 4:00 PM)
Minimum temperature yesterday: 34 °F (at 12:00 AM)
Average temperature yesterday: 35 °F

Past Weeks' High & Low Weather Summary

 TemperatureHumidityPressure
High43 °F (Feb 22, 3:30 PM)100% (Feb 19, 4:30 AM)30.86 "Hg (Feb 19, 4:30 AM)
Low1 °F (Feb 17, 6:30 AM)26% (Feb 16, 4:00 PM)29.68 "Hg (Feb 21, 9:00 PM)
Average32 °F86%30.12 "Hg
* Reported Feb 15 2:00 AM — Mar 2 2:00 AM, Minsk, Weather by CustomWeather, © 2015

Note: Actual official high and low records may vary slightly from our data, if they occured in-between our weather recording intervals... More about our weather records

Advertising

Minsk weather history for previous 24 hours

 ConditionsComfort  
Time TempWeatherWind HumidityBarometerVisibility
2:00 AM
Mon, Mar 2
37 °FFog.10 mph100%29.80 "Hg3 mi
1:30 AM37 °FDrizzle. Fog.10 mph100%29.80 "Hg3 mi
1:00 AM37 °FDrizzle. Fog.10 mph100%29.80 "Hg3 mi
12:30 AM37 °FFog.10 mph100%29.83 "Hg2 mi
12:00 AM37 °FLight rain. Fog.10 mph100%29.83 "Hg3 mi
11:30 PM
Sun, Mar 1
37 °FLight rain. Fog.10 mph100%29.83 "Hg2 mi
10:30 PM36 °FDrizzle. Fog.10 mph100%29.86 "Hg2 mi
10:00 PM36 °FDrizzle. Low clouds.10 mph100%29.89 "Hg5 mi
9:30 PM36 °FPartly cloudy.10 mph100%29.89 "Hg5 mi
9:00 PM36 °FPartly cloudy.10 mph100%29.89 "Hg6 mi
8:30 PM36 °FLight rain. Partly cloudy.10 mph100%29.89 "HgN/A
8:00 PM36 °FLight rain. Passing clouds.8 mph100%29.92 "HgN/A
7:30 PM36 °FPartly sunny.8 mph100%29.92 "HgN/A
7:00 PM36 °FBroken clouds.8 mph100%29.92 "HgN/A
6:30 PM37 °FBroken clouds.8 mph93%29.92 "HgN/A
6:00 PM37 °FPartly sunny.8 mph93%29.95 "HgN/A
5:30 PM39 °FPartly sunny.6 mph93%29.95 "HgN/A
5:00 PM39 °FPartly sunny.10 mph93%29.95 "HgN/A
4:30 PM39 °FPartly sunny.10 mph93%29.98 "HgN/A
4:00 PM39 °FPartly sunny.6 mph93%29.98 "HgN/A
3:30 PM37 °FLow clouds.6 mph93%29.98 "HgN/A
3:00 PM37 °FLow clouds.6 mph93%30.01 "HgN/A
2:30 PM37 °FOvercast.8 mph87%30.01 "HgN/A
2:00 PM37 °FOvercast.6 mph87%30.01 "HgN/A
1:30 PM36 °FOvercast.3 mph93%30.04 "HgN/A
1:00 PM36 °FOvercast.3 mph93%30.04 "Hg6 mi
12:30 PM36 °FLight rain. More clouds than sun.1 mph93%30.04 "Hg5 mi
12:00 PM36 °FMostly cloudy.No wind93%30.04 "Hg5 mi
11:46 AM36 °FLight rain. Mostly cloudy.No wind93%30.04 "Hg5 mi
11:30 AM36 °FMostly cloudy.No wind93%30.04 "Hg5 mi
11:00 AM36 °FMore clouds than sun.3 mph93%30.04 "Hg4 mi
10:30 AM34 °FFog.No wind100%30.04 "Hg3 mi
10:00 AM34 °FFog.No wind100%30.04 "Hg3 mi
9:30 AM34 °FFog.No wind100%30.04 "Hg3 mi
9:00 AM34 °FFog.No wind100%30.04 "Hg2 mi
8:58 AM34 °FFog.No wind100%30.04 "Hg2 mi
8:30 AM34 °FOvercast.No wind100%30.04 "Hg4 mi
8:00 AM34 °FFog.No wind100%30.04 "Hg3 mi
7:30 AM34 °FFog.1 mph100%30.04 "Hg3 mi
7:00 AM34 °FFog.3 mph100%30.07 "Hg3 mi
6:30 AM34 °FFog.3 mph100%30.04 "Hg2 mi
6:00 AM34 °FFog.No wind100%30.04 "Hg2 mi
5:30 AM34 °FFog.No wind100%30.07 "Hg3 mi
5:00 AM34 °FFog.No wind93%30.07 "Hg3 mi
4:30 AM34 °FFog.No wind100%30.07 "Hg3 mi
4:00 AM34 °FOvercast.No wind100%30.07 "Hg4 mi
3:30 AM34 °FFog.No wind100%30.07 "Hg2 mi
3:00 AM34 °FFog.No wind100%30.07 "Hg2 mi
Weather by CustomWeather, © 2015

See weather overviewHow to use our weather pages